Weather History for Eastman, GA

Change the Weather History Date:

Tuesday, February 5, 2013

  Actual Average Record
Temperature  
Mean Temperature 54 °F -  
Max Temperature 72 °F 58 °F 74 °F (2014)
Min Temperature 35 °F 35 °F 35 °F (2013)
Degree Days  
Heating Degree Days 12    
Growing Degree Days 4 (Base 50)    
Moisture  
Dew Point 45 °F    
Average Humidity 72    
Maximum Humidity 93    
Minimum Humidity 35    
Precipitation  
Precipitation 0.00 in - - ()
Sea Level Pressure  
Sea Level Pressure 30.05 in    
Wind  
Wind Speed 2 mph (WSW)    
Max Wind Speed 10 mph    
Max Gust Speed -    
Visibility 10 miles    
Events Rain    
Averages and records for this station are not official NWS values.
T = Trace of Precipitation, MM = Missing Value Source: NWS Daily Summary

Daily Weather History Graph

Daily Weather History Graph

Search for Another Location

Airport:

Trip Planner

Search our weather history database for the weather conditions in past years. The results will help you decide how hot, cold, wet, or windy it might be!

Date:

Astronomy

Feb. 05, 2013 Rise Set
Actual Time 7:23 AM EST 6:10 PM EST
Civil Twilight 6:57 AM EST 6:35 PM EST
Nautical Twilight 6:28 AM EST 7:04 PM EST
Astronomical Twilight 6:00 AM EST 7:33 PM EST
Moon 2:58 AM EST (2/5) 1:32 PM EST (2/5)
Length of Visible Light 11h 37m
Length of Day
10h 46m
Waning Crescent, 27% of the Moon is Illuminated
Feb 5
Waning Crescent
Feb 10
New
Feb 17
First Quarter
Feb 25
Full
Mar 4
Last Quarter

Hourly Weather History & Observations

Time (EST) Temp. Dew Point Humidity Pressure Visibility Wind Dir Wind Speed Gust Speed Precip Events Conditions
12:15 AM 36.5 °F 34.0 °F 91% 30.07 in 10.0 mi Calm Calm - N/A   Clear
12:35 AM 37.2 °F 34.5 °F 90% 30.06 in 10.0 mi Calm Calm - N/A   Clear
12:55 AM 36.9 °F 35.1 °F 93% 30.05 in 10.0 mi Calm Calm - N/A   Clear
1:15 AM 36.3 °F 33.8 °F 91% 30.05 in 10.0 mi Calm Calm - N/A   Clear
1:35 AM 35.8 °F 33.8 °F 92% 30.05 in 10.0 mi Calm Calm - N/A   Clear
1:55 AM 36.5 °F 34.3 °F 92% 30.05 in 10.0 mi Calm Calm - N/A   Clear
2:15 AM 37.0 °F 34.5 °F 91% 30.04 in 10.0 mi Calm Calm - N/A   Clear
2:35 AM 37.8 °F 35.2 °F 91% 30.04 in 10.0 mi Calm Calm - N/A   Clear
2:55 AM 37.8 °F 35.4 °F 91% 30.04 in 10.0 mi Calm Calm - N/A   Clear
3:15 AM 37.9 °F 35.6 °F 91% 30.04 in 10.0 mi Calm Calm - N/A   Clear
3:35 AM 37.4 °F 34.7 °F 90% 30.03 in 10.0 mi Calm Calm - N/A   Clear
3:55 AM 37.4 °F 34.9 °F 91% 30.03 in 10.0 mi Calm Calm - N/A   Clear
4:15 AM 38.8 °F 35.6 °F 88% 30.03 in 10.0 mi Calm Calm - N/A   Clear
4:35 AM 38.1 °F 35.4 °F 90% 30.02 in 10.0 mi Calm Calm - N/A   Clear
4:55 AM 38.1 °F 35.4 °F 90% 30.03 in 10.0 mi Calm Calm - N/A   Clear
5:15 AM 38.5 °F 35.8 °F 90% 30.03 in 10.0 mi Calm Calm - N/A   Clear
5:35 AM 38.8 °F 36.0 °F 89% 30.04 in 10.0 mi Calm Calm - N/A   Clear
5:55 AM 37.8 °F 35.6 °F 92% 30.06 in 10.0 mi Calm Calm - N/A   Clear
6:15 AM 38.8 °F 36.1 °F 90% 30.06 in 10.0 mi Calm Calm - N/A   Clear
6:35 AM 40.8 °F 38.1 °F 90% 30.05 in 10.0 mi Calm Calm - N/A   Clear
6:55 AM 40.3 °F 37.8 °F 91% 30.06 in 10.0 mi Calm Calm - N/A   Clear
7:15 AM 40.6 °F 37.4 °F 88% 30.07 in 10.0 mi Calm Calm - N/A   Clear
7:35 AM 39.4 °F 36.7 °F 90% 30.07 in 10.0 mi Calm Calm - N/A   Scattered Clouds
7:55 AM 40.1 °F 37.6 °F 91% 30.08 in 10.0 mi Calm Calm - N/A   Scattered Clouds
8:15 AM 41.5 °F 39.2 °F 91% 30.08 in 10.0 mi Calm Calm - N/A   Clear
8:35 AM 44.1 °F 41.0 °F 89% 30.09 in 10.0 mi Calm Calm - N/A   Clear
8:55 AM 49.3 °F 45.0 °F 85% 30.09 in 10.0 mi Calm Calm - N/A   Scattered Clouds
9:15 AM 53.8 °F 47.1 °F 78% 30.10 in 10.0 mi Calm Calm - N/A   Mostly Cloudy
9:35 AM 58.3 °F 50.4 °F 75% 30.10 in 10.0 mi WSW 3.5 mph - N/A   Mostly Cloudy
9:55 AM 59.0 °F 50.7 °F 74% 30.10 in 10.0 mi WSW 8.1 mph - N/A   Scattered Clouds
10:15 AM 60.4 °F 50.5 °F 70% 30.10 in 10.0 mi West 6.9 mph - N/A   Mostly Cloudy
10:35 AM 61.9 °F 50.4 °F 66% 30.10 in 10.0 mi SW 9.2 mph - N/A   Mostly Cloudy
10:55 AM 63.0 °F 50.7 °F 64% 30.10 in 10.0 mi WSW 5.8 mph - N/A   Overcast
11:15 AM 63.7 °F 50.4 °F 62% 30.09 in 10.0 mi WSW 5.8 mph - N/A   Overcast
11:35 AM 66.2 °F 49.5 °F 55% 30.09 in 10.0 mi SW 8.1 mph - N/A   Mostly Cloudy
11:55 AM 66.6 °F 47.8 °F 51% 30.08 in 10.0 mi West 10.4 mph - N/A   Scattered Clouds
12:15 PM 65.8 °F 46.9 °F 50% 30.08 in 10.0 mi WNW 5.8 mph - N/A   Scattered Clouds
12:35 PM 68.9 °F 43.0 °F 39% 30.07 in 10.0 mi West 9.2 mph - N/A   Scattered Clouds
12:55 PM 69.3 °F 40.5 °F 35% 30.05 in 10.0 mi WSW 8.1 mph - N/A   Clear
1:15 PM 70.5 °F 42.3 °F 36% 30.05 in 10.0 mi SW 6.9 mph - N/A   Clear
1:35 PM 70.7 °F 44.2 °F 39% 30.03 in 10.0 mi WSW 8.1 mph - N/A   Clear
1:55 PM 69.8 °F 47.1 °F 44% 30.02 in 10.0 mi West 8.1 mph - N/A   Clear
2:15 PM 71.4 °F 47.8 °F 43% 30.02 in 10.0 mi West 9.2 mph - N/A   Scattered Clouds
2:35 PM 70.7 °F 47.5 °F 44% 30.02 in 10.0 mi West 10.4 mph - N/A   Scattered Clouds
2:55 PM 69.8 °F 48.2 °F 46% 30.02 in 10.0 mi West 6.9 mph - N/A   Scattered Clouds
3:15 PM 69.6 °F 47.8 °F 46% 30.02 in 10.0 mi West 5.8 mph - N/A   Scattered Clouds
3:35 PM 70.5 °F 47.3 °F 44% 30.01 in 10.0 mi West 6.9 mph - N/A   Mostly Cloudy
3:55 PM 72.5 °F 46.4 °F 39% 30.01 in 10.0 mi WSW 6.9 mph - N/A   Mostly Cloudy
4:15 PM 72.0 °F 46.6 °F 40% 30.01 in 10.0 mi WSW 4.6 mph - N/A   Scattered Clouds
4:35 PM 71.2 °F 46.9 °F 42% 30.01 in 10.0 mi West 9.2 mph - N/A   Scattered Clouds
4:55 PM 70.2 °F 48.0 °F 45% 30.01 in 10.0 mi WSW 4.6 mph - N/A   Scattered Clouds
5:15 PM 69.4 °F 48.4 °F 47% 30.01 in 10.0 mi WSW 6.9 mph - N/A   Mostly Cloudy
5:35 PM 68.5 °F 49.6 °F 51% 30.01 in 10.0 mi WSW 6.9 mph - N/A   Overcast
5:55 PM 67.3 °F 51.8 °F 58% 30.01 in 10.0 mi SW 4.6 mph - N/A   Overcast
6:15 PM 66.2 °F 52.5 °F 61% 30.02 in 10.0 mi WSW 6.9 mph - N/A   Overcast
6:35 PM 65.8 °F 53.1 °F 63% 30.02 in 10.0 mi SW 5.8 mph - N/A   Overcast
6:55 PM 65.3 °F 53.1 °F 65% 30.03 in 10.0 mi SW 3.5 mph - N/A   Overcast
7:15 PM 64.9 °F 53.2 °F 66% 30.03 in 10.0 mi SW 3.5 mph - N/A   Overcast
7:35 PM 64.6 °F 53.4 °F 67% 30.04 in 10.0 mi SW 4.6 mph - N/A Rain Light Rain
7:55 PM 63.3 °F 53.6 °F 71% 30.03 in 10.0 mi South 4.6 mph - N/A   Light Drizzle
8:15 PM 62.1 °F 53.1 °F 72% 30.04 in 10.0 mi SSW 4.6 mph - N/A   Scattered Clouds
8:35 PM 61.7 °F 53.1 °F 73% 30.04 in 10.0 mi Calm Calm - N/A   Scattered Clouds
8:55 PM 60.8 °F 53.1 °F 76% 30.05 in 10.0 mi Calm Calm - N/A   Clear
9:15 PM 59.5 °F 53.1 °F 79% 30.05 in 10.0 mi Calm Calm - N/A   Clear
9:35 PM 57.4 °F 52.7 °F 84% 30.06 in 10.0 mi Calm Calm - N/A   Scattered Clouds
9:55 PM 57.7 °F 52.9 °F 84% 30.07 in 10.0 mi Calm Calm - N/A   Scattered Clouds
10:15 PM 55.8 °F 52.2 °F 88% 30.07 in 10.0 mi Calm Calm - N/A   Scattered Clouds
10:35 PM 53.6 °F 50.5 °F 89% 30.07 in 10.0 mi Calm Calm - N/A   Clear
10:55 PM 54.1 °F 50.9 °F 89% 30.08 in 10.0 mi Calm Calm - N/A   Scattered Clouds
11:15 PM 53.6 °F 50.7 °F 90% 30.07 in 10.0 mi Calm Calm - N/A   Scattered Clouds
11:35 PM 53.2 °F 50.0 °F 89% 30.07 in 10.0 mi Calm Calm - N/A   Clear
11:55 PM 50.2 °F 47.8 °F 92% 30.07 in 5.0 mi Calm Calm - N/A   Clear